Regional Weather Roundup
Issued by NWS New Orleans/Baton Rouge, LA

Home | Current Version | Previous Version | Graphics & Text | Print | Product List | Glossary On
Versions: 1 2 3 4 5 6 7 8 9 10 11 12 13 14 15 16 17 18 19 20 21 22 23 24 25 26 27 28 29 30 31 32 33 34 35 36 37 38 39 40 41 42 43 44 45 46 47 48 49 50
496
ASUS44 KLIX 220101
RWRLIX
NEW ORLEANS REGIONAL WEATHER ROUNDUP
NATIONAL WEATHER SERVICE NEW ORLEANS LA
800 PM CDT THU AUG 21 2014

NOTE: "FAIR" INDICATES FEW OR NO CLOUDS BELOW 12,000 FEET WITH NO
      SIGNIFICANT WEATHER AND/OR OBSTRUCTIONS TO VISIBILITY.
      SKY/WX - SKY CONDITION AND SIGNIFICANT WEATHER.
      TMP - AIR TEMPERATURE.     DP    - DEWPOINT TEMPERATURE.
      RH  - RELATIVE HUMIDITY.   PRES  - PRESSURE.
      HI  - HEAT INDEX.          WCI   - WIND CHILL INDEX.

*  THESE STATIONS ARE NOT NWS OR FAA STATIONS AND ARE NOT UNDER
   NWS QUALITY CONTROL.

LAZ038-040-048-061>063-065>067-069-220200-
SOUTHEAST LOUISIANA

CITY           SKY/WX    TMP DP  RH WIND       PRES   REMARKS
N.O. AUDUBON     N/A     82  76  82 MISG        N/A
N.O. INTL ARPT CLOUDY    78  73  84 W3        30.11R
N.O. LAKEFRONT MOCLDY    83  73  72 CALM      30.11R
N.O. DOWNTOWN*   N/A     82  70  65 W5        30.11S
SLIDELL        CLEAR     82  74  76 CALM      30.10R
BATON ROUGE    CLOUDY    78  75  90 SE6       30.11R
BOOTHVILLE     PTCLDY    85  76  74 CALM      30.11S
BELLE CHASSE   MOCLDY    78  74  87 CALM      30.10S
BOGALUSA*        N/A     84  74  72 CALM      30.12R
GALLIANO*      NOT AVBL
NEW ROADS*       N/A     77  74  91 CALM      30.10S
GONZALES*        N/A     78  78 100 CALM      30.11R
HAMMOND*       NOT AVBL
HOUMA*         CLOUDY    79  72  80 CALM      30.11S
PORT FOURCHON* PTCLDY    88  75  66 S5        30.12S HX  97

$$

MSZ070-080>082-220200-
SOUTHERN MISSISSIPPI

CITY           SKY/WX    TMP DP  RH WIND       PRES   REMARKS
MCCOMB         CLOUDY    81  74  79 NE3       30.12R
GULFPORT       PTCLDY    86  75  69 CALM      30.10R HX  95
BILOXI         PTCLDY    85  75  70 W3        30.11R
PASCAGOULA     PTCLDY    83  76  79 CALM      30.11R

$$

COASTAL OBSERVATIONS
LAKE AND NEARSHORE STATIONS

STATION/POSITION TIME  TEMP    WIND        PRES    WAVE
                       AIR SEA DIR/SP/G            HT/PER
                 (UTC) (F)     (DEG/KT/KT) (MB)    (FT/S)
PASCAGOULA       0000   87     230/  8/ 11 1018.8
WAVELAND YACHT   0000   87     210/  4/  7 1018.7
GRAND ISLE       0000   85 90   CALM  /  1 1020.1
SOUTHWEST PASS   0000   87 89  210/  1/  2 1020.0
NEW CANAL        0000   83 85  250/  4/  5 1019.7
SHELL BEACH      0000   82 83  230/  5/  6 1019.2

OFFSHORE STATIONS

STATION/POSITION TIME  TEMP    WIND        PRES    WAVE
                       AIR SEA DIR/SP/G            HT/PER
                 (UTC) (F)     (DEG/KT/KT) (MB)    (FT/S)
64 S DAUPHIN ISL 0011   86 90  220/  2/  4 1019.9

$$




USA.gov is the U.S. government's official web portal to all federal, state and local government web resources and services.